Location: Fort Worth, Tx
(32.7431°N, 97.3695°W)
Time: 04:56:03
(UTC-05:00)

Altair - Pass Details

Date: 09 October 2023
Orbit: 1501 x 1682 km, 47.2° (Epoch: 06 December)

Event Time Altitude Azimuth Distance (km) Brightness Sun altitude
Rises 22:28:48 0° 170° (S) 4,631 - -31.1°
Reaches altitude 10° 22:34:29 10° 142° (SE) 3,680 - -32.3°
Maximum altitude 22:37:41 12° 121° (ESE) 3,528 - -32.9°
Drops below altitude 10° 22:40:55 10° 101° (E) 3,726 - -33.6°
Sets 22:46:42 0° 74° (ENE) 4,758 - -34.8°
